This is the latest recevied weather packets stored in our database for station/object WC4PEM-11. If no packets are shown the sender has not sent any weather packets the latest 10 day(s).
| Time | Temp. | Humidity | Pressure | Rain* | Wind** | Luminosity | Snow |
|---|---|---|---|---|---|---|---|
| 1777752956 | 27.78° C | 71% | 1010.9 hPa | 0 mm | - | - | - |
| 1777752792 | 27.22° C | 72% | 1011 hPa | 0 mm | - | - | - |
| 1777752617 | 27.22° C | 71% | 1011.1 hPa | 0 mm | - | - | - |
| 1777752492 | 27.22° C | 71% | 1011.1 hPa | 0 mm | - | - | - |
| 1777752192 | 27.78° C | 71% | 1011 hPa | 0 mm | - | - | - |
| 1777751892 | 27.78° C | 71% | 1010.9 hPa | 0 mm | - | - | - |
| 1777751592 | 27.78° C | 71% | 1010.9 hPa | 0 mm | - | - | - |
| 1777751292 | 27.78° C | 70% | 1010.9 hPa | 0 mm | - | - | - |
| 1777751124 | 28.33° C | 69% | 1011 hPa | 0 mm | - | - | - |
| 1777750992 | 28.33° C | 70% | 1010.9 hPa | 0 mm | - | - | - |
| 1777750692 | 28.33° C | 69% | 1011 hPa | 0 mm | - | - | - |
| 1777750392 | 28.33° C | 68% | 1011 hPa | 0 mm | - | - | - |
| 1777750092 | 28.33° C | 69% | 1011 hPa | 0 mm | - | - | - |
| 1777749792 | 28.33° C | 68% | 1011 hPa | 0 mm | - | - | - |
| 1777749492 | 28.33° C | 68% | 1011.2 hPa | 0 mm | - | - | - |
| 1777749265 | 28.33° C | 68% | 1011.2 hPa | 0 mm | - | - | - |
| 1777749192 | 28.33° C | 67% | 1011.2 hPa | 0 mm | - | - | - |
| 1777748892 | 28.33° C | 68% | 1011 hPa | 0 mm | - | - | - |
| 1777748592 | 28.33° C | 68% | 1011.2 hPa | 0 mm | - | - | - |
| 1777748292 | 28.33° C | 68% | 1011.2 hPa | 0 mm | - | - | - |
| 1777748070 | 29.44° C | 65% | 1011.2 hPa | 0 mm | - | - | - |
| 1777747992 | 28.89° C | 67% | 1011.2 hPa | 0 mm | - | - | - |
| 1777747692 | 28.89° C | 67% | 1011.3 hPa | 0 mm | - | - | - |
| 1777747392 | 28.89° C | 66% | 1011.2 hPa | 0 mm | - | - | - |
| 1777747092 | 29.44° C | 65% | 1011.2 hPa | 0 mm | - | - | - |
* Rain latest hour (hover to see other rain measurements)
** Current wind speed in m/s (hover to see current wind gust speed)